Time,TemperatureF,DewpointF,PressureIn,WindDirection,WindDirectionDegrees,WindSpeedMPH,WindSpeedGustMPH,Humidity,HourlyPrecipIn,Conditions,Clouds,dailyrainin,SoftwareType,DateUTC
2013-01-10 00:02:00,27.0,8.0,-100.00,NE,42,6.0,12.0,44,0.00,,,-99.99,,2013-01-10 07:02:00,
2013-01-10 00:12:00,28.0,7.0,-100.00,North,353,4.0,9.0,40,0.00,,,-99.99,,2013-01-10 07:12:00,
2013-01-10 00:22:00,29.0,6.0,-100.00,ENE,73,4.0,7.0,37,0.00,,,-99.99,,2013-01-10 07:22:00,
2013-01-10 00:32:00,32.0,6.0,-100.00,West,278,5.0,9.0,32,0.00,,,-99.99,,2013-01-10 07:32:00,
2013-01-10 00:42:00,33.0,6.0,-100.00,West,267,4.0,7.0,32,0.00,,,-99.99,,2013-01-10 07:42:00,
2013-01-10 00:52:00,33.0,5.0,-100.00,West,280,3.0,7.0,29,0.00,,,-99.99,,2013-01-10 07:52:00,
2013-01-10 01:02:00,32.0,6.0,-100.00,NNW,335,4.0,12.0,32,0.00,,,-99.99,,2013-01-10 08:02:00,
2013-01-10 01:11:00,27.0,8.0,-100.00,WNW,291,2.0,9.0,43,0.00,,,-99.99,,2013-01-10 08:11:00,
2013-01-10 01:22:00,29.0,6.0,-100.00,WNW,296,6.0,11.0,37,0.00,,,-99.99,,2013-01-10 08:22:00,
2013-01-10 01:32:00,32.0,6.0,-100.00,WNW,294,6.0,9.0,33,0.00,,,-99.99,,2013-01-10 08:32:00,
2013-01-10 01:42:00,30.0,6.0,-100.00,NNE,25,3.0,10.0,36,0.00,,,-99.99,,2013-01-10 08:42:00,
2013-01-10 01:52:00,31.0,6.0,-100.00,SW,227,4.0,14.0,34,0.00,,,-99.99,,2013-01-10 08:52:00,
2013-01-10 02:02:00,31.0,6.0,-100.00,SW,222,7.0,12.0,34,0.00,,,-99.99,,2013-01-10 09:02:00,
2013-01-10 02:12:00,29.0,7.0,-100.00,WSW,246,7.0,12.0,37,0.00,,,-99.99,,2013-01-10 09:12:00,
2013-01-10 02:22:00,30.0,6.0,-100.00,ESE,120,3.0,7.0,37,0.00,,,-99.99,,2013-01-10 09:22:00,
2013-01-10 02:32:00,31.0,6.0,-100.00,West,274,5.0,7.0,34,0.00,,,-99.99,,2013-01-10 09:32:00,
2013-01-10 02:42:00,36.0,5.0,-100.00,WSW,257,5.0,10.0,26,0.00,,,-99.99,,2013-01-10 09:42:00,
2013-01-10 02:52:00,30.0,6.0,-100.00,West,271,5.0,11.0,37,0.00,,,-99.99,,2013-01-10 09:52:00,
2013-01-10 03:03:00,31.0,6.0,-100.00,South,171,4.0,10.0,33,0.00,,,-99.99,,2013-01-10 10:03:00,
2013-01-10 03:12:00,31.0,6.0,-100.00,SSE,167,5.0,10.0,34,0.00,,,-99.99,,2013-01-10 10:12:00,
2013-01-10 03:22:00,32.0,5.0,-100.00,SSW,192,4.0,8.0,32,0.00,,,-99.99,,2013-01-10 10:22:00,
2013-01-10 03:32:00,27.0,7.0,-100.00,SW,229,4.0,7.0,43,0.00,,,-99.99,,2013-01-10 10:32:00,
2013-01-10 03:42:00,31.0,6.0,-100.00,South,191,7.0,17.0,35,0.00,,,-99.99,,2013-01-10 10:42:00,
2013-01-10 03:52:00,29.0,7.0,-100.00,SE,131,6.0,11.0,38,0.00,,,-99.99,,2013-01-10 10:52:00,
2013-01-10 04:02:00,27.0,7.0,-100.00,SE,134,7.0,12.0,42,0.00,,,-99.99,,2013-01-10 11:02:00,
2013-01-10 04:12:00,29.0,7.0,-100.00,SSE,150,8.0,13.0,39,0.00,,,-99.99,,2013-01-10 11:12:00,
2013-01-10 04:22:00,28.0,9.0,-100.00,South,179,7.0,12.0,44,0.00,,,-99.99,,2013-01-10 11:22:00,
2013-01-10 04:32:00,29.0,8.0,-100.00,South,174,5.0,9.0,41,0.00,,,-99.99,,2013-01-10 11:32:00,
2013-01-10 04:42:00,30.0,7.0,-100.00,SSE,161,4.0,7.0,38,0.00,,,-99.99,,2013-01-10 11:42:00,
2013-01-10 04:52:00,28.0,8.0,-100.00,SSE,147,6.0,9.0,42,0.00,,,-99.99,,2013-01-10 11:52:00,
2013-01-10 05:02:00,32.0,6.0,-100.00,SW,222,4.0,9.0,34,0.00,,,-99.99,,2013-01-10 12:02:00,
2013-01-10 05:12:00,30.0,7.0,-100.00,SW,215,4.0,9.0,36,0.00,,,-99.99,,2013-01-10 12:12:00,
2013-01-10 05:22:00,32.0,7.0,-100.00,South,174,4.0,7.0,34,0.00,,,-99.99,,2013-01-10 12:22:00,
2013-01-10 05:32:00,32.0,7.0,-100.00,SE,134,8.0,12.0,35,0.00,,,-99.99,,2013-01-10 12:32:00,
2013-01-10 05:42:00,32.0,8.0,-100.00,SE,137,12.0,16.0,36,0.00,,,-99.99,,2013-01-10 12:42:00,
2013-01-10 05:52:00,33.0,8.0,-100.00,SE,124,11.0,14.0,34,0.00,,,-99.99,,2013-01-10 12:52:00,
2013-01-10 06:02:00,31.0,7.0,-100.00,SSW,199,4.0,9.0,36,0.00,,,-99.99,,2013-01-10 13:02:00,
2013-01-10 06:12:00,33.0,6.0,-100.00,NE,48,4.0,9.0,33,0.00,,,-99.99,,2013-01-10 13:12:00,
2013-01-10 06:22:00,33.0,6.0,-100.00,WSW,256,2.0,4.0,32,0.00,,,-99.99,,2013-01-10 13:22:00,
2013-01-10 06:32:00,34.0,7.0,-100.00,WNW,282,4.0,7.0,32,0.00,,,-99.99,,2013-01-10 13:32:00,
2013-01-10 06:42:00,33.0,8.0,-100.00,West,280,1.0,5.0,35,0.00,,,-99.99,,2013-01-10 13:42:00,
2013-01-10 06:52:00,32.0,9.0,-100.00,ESE,121,11.0,19.0,38,0.00,,,-99.99,,2013-01-10 13:52:00,
2013-01-10 07:02:00,33.0,8.0,-100.00,ESE,116,12.0,20.0,33,0.00,,,-99.99,,2013-01-10 14:02:00,
2013-01-10 07:12:00,32.0,8.0,-100.00,SE,133,10.0,14.0,36,0.00,,,-99.99,,2013-01-10 14:12:00,
2013-01-10 07:22:00,35.0,7.0,-100.00,East,97,9.0,19.0,31,0.00,,,-99.99,,2013-01-10 14:22:00,
2013-01-10 07:32:00,35.0,6.0,-100.00,ESE,107,9.0,14.0,29,0.00,,,-99.99,,2013-01-10 14:32:00,
2013-01-10 07:43:00,34.0,7.0,-100.00,East,100,7.0,14.0,32,0.00,,,-99.99,,2013-01-10 14:43:00,
2013-01-10 07:53:00,34.0,7.0,-100.00,ESE,109,8.0,13.0,33,0.00,,,-99.99,,2013-01-10 14:53:00,
2013-01-10 08:03:00,37.0,4.0,-100.00,ESE,120,10.0,16.0,25,0.00,,,-99.99,,2013-01-10 15:03:00,
2013-01-10 08:12:00,39.0,2.0,-100.00,SE,127,12.0,21.0,21,0.00,,,-99.99,,2013-01-10 15:12:00,
2013-01-10 08:22:00,41.0,2.0,-100.00,SSE,168,21.0,37.0,19,0.00,,,-99.99,,2013-01-10 15:22:00,
2013-01-10 08:33:00,42.0,2.0,-100.00,South,171,27.0,39.0,19,0.00,,,-99.99,,2013-01-10 15:33:00,
2013-01-10 08:43:00,41.0,1.0,-100.00,South,175,29.0,41.0,19,0.00,,,-99.99,,2013-01-10 15:43:00,
2013-01-10 08:53:00,41.0,3.0,-100.00,South,176,30.0,40.0,20,0.00,,,-99.99,,2013-01-10 15:53:00,
2013-01-10 09:02:00,41.0,1.0,-100.00,South,175,29.0,41.0,19,0.00,,,-99.99,,2013-01-10 16:02:00,
2013-01-10 09:12:00,41.0,3.0,-100.00,South,176,29.0,41.0,20,0.00,,,-99.99,,2013-01-10 16:12:00,
2013-01-10 09:22:00,41.0,2.0,-100.00,South,178,29.0,42.0,18,0.00,,,-99.99,,2013-01-10 16:22:00,
2013-01-10 09:33:00,41.0,3.0,-100.00,South,178,32.0,40.0,19,0.00,,,-99.99,,2013-01-10 16:33:00,
2013-01-10 09:42:00,42.0,3.0,-100.00,South,178,32.0,44.0,19,0.00,,,-99.99,,2013-01-10 16:42:00,
2013-01-10 09:52:00,42.0,3.0,-100.00,South,176,32.0,42.0,20,0.00,,,-99.99,,2013-01-10 16:52:00,
2013-01-10 10:03:00,42.0,0.0,-100.00,South,176,31.0,41.0,17,0.00,,,-99.99,,2013-01-10 17:03:00,
2013-01-10 10:12:00,42.0,3.0,-100.00,South,176,30.0,41.0,20,0.00,,,-99.99,,2013-01-10 17:12:00,
2013-01-10 10:22:00,42.0,2.0,-100.00,South,172,29.0,40.0,19,0.00,,,-99.99,,2013-01-10 17:22:00,
2013-01-10 10:33:00,42.0,3.0,-100.00,South,171,27.0,35.0,19,0.00,,,-99.99,,2013-01-10 17:33:00,
2013-01-10 10:42:00,42.0,0.0,-100.00,South,169,22.0,35.0,17,0.00,,,-99.99,,2013-01-10 17:42:00,
2013-01-10 10:53:00,43.0,0.0,-100.00,SSE,161,21.0,32.0,16,0.00,,,-99.99,,2013-01-10 17:53:00,
2013-01-10 11:03:00,43.0,2.0,-100.00,SSE,158,17.0,27.0,18,0.00,,,-99.99,,2013-01-10 18:03:00,
2013-01-10 11:12:00,43.0,2.0,-100.00,SSE,160,17.0,26.0,18,0.00,,,-99.99,,2013-01-10 18:12:00,
2013-01-10 11:23:00,42.0,3.0,-100.00,SSE,162,23.0,32.0,19,0.00,,,-99.99,,2013-01-10 18:23:00,
2013-01-10 11:33:00,43.0,0.0,-100.00,SSE,164,26.0,34.0,17,0.00,,,-99.99,,2013-01-10 18:33:00,
2013-01-10 11:43:00,43.0,2.0,-100.00,SSE,160,24.0,35.0,18,0.00,,,-99.99,,2013-01-10 18:43:00,
2013-01-10 11:52:00,43.0,2.0,-100.00,SSE,160,21.0,29.0,18,0.00,,,-99.99,,2013-01-10 18:52:00,
2013-01-10 12:03:00,43.0,2.0,-100.00,SSE,162,17.0,29.0,18,0.00,,,-99.99,,2013-01-10 19:03:00,
2013-01-10 12:12:00,44.0,0.0,-100.00,SSE,160,8.0,15.0,16,0.00,,,-99.99,,2013-01-10 19:12:00,
2013-01-10 12:23:00,44.0,3.0,-100.00,SSE,158,8.0,15.0,18,0.00,,,-99.99,,2013-01-10 19:23:00,
2013-01-10 12:33:00,40.0,13.0,-100.00,ENE,78,11.0,16.0,31,0.00,,,-99.99,,2013-01-10 19:33:00,
2013-01-10 12:43:00,41.0,11.0,-100.00,East,82,13.0,17.0,29,0.00,,,-99.99,,2013-01-10 19:43:00,
2013-01-10 12:52:00,41.0,11.0,-100.00,East,95,12.0,19.0,28,0.00,,,-99.99,,2013-01-10 19:52:00,
2013-01-10 13:03:00,41.0,11.0,-100.00,East,99,13.0,21.0,29,0.00,,,-99.99,,2013-01-10 20:03:00,
2013-01-10 13:12:00,42.0,8.0,-100.00,ESE,103,14.0,22.0,24,0.00,,,-99.99,,2013-01-10 20:12:00,
2013-01-10 13:23:00,43.0,9.0,-100.00,East,92,11.0,17.0,25,0.00,,,-99.99,,2013-01-10 20:23:00,
2013-01-10 13:33:00,44.0,10.0,-100.00,East,85,12.0,18.0,25,0.00,,,-99.99,,2013-01-10 20:33:00,
2013-01-10 13:42:00,44.0,7.0,-100.00,East,90,11.0,21.0,21,0.00,,,-99.99,,2013-01-10 20:42:00,
2013-01-10 13:53:00,45.0,3.0,-100.00,SSE,161,16.0,30.0,17,0.00,,,-99.99,,2013-01-10 20:53:00,
2013-01-10 14:03:00,46.0,5.0,-100.00,SSW,199,10.0,21.0,18,0.00,,,-99.99,,2013-01-10 21:03:00,
2013-01-10 14:12:00,45.0,3.0,-100.00,South,172,9.0,19.0,17,0.00,,,-99.99,,2013-01-10 21:12:00,
2013-01-10 14:23:00,45.0,5.0,-100.00,South,175,6.0,14.0,18,0.00,,,-99.99,,2013-01-10 21:23:00,
2013-01-10 14:33:00,45.0,6.0,-100.00,SE,143,7.0,21.0,19,0.00,,,-99.99,,2013-01-10 21:33:00,
2013-01-10 14:42:00,45.0,6.0,-100.00,South,169,7.0,22.0,20,0.00,,,-99.99,,2013-01-10 21:42:00,
2013-01-10 14:52:00,44.0,12.0,-100.00,East,97,5.0,10.0,27,0.00,,,-99.99,,2013-01-10 21:52:00,
2013-01-10 15:03:00,45.0,6.0,-100.00,ESE,119,3.0,18.0,20,0.00,,,-99.99,,2013-01-10 22:03:00,
2013-01-10 15:12:00,44.0,9.0,-100.00,South,186,10.0,22.0,23,0.00,,,-99.99,,2013-01-10 22:12:00,
2013-01-10 15:25:00,44.0,10.0,-100.00,SSE,147,12.0,24.0,24,0.00,,,-99.99,,2013-01-10 22:25:00,
2013-01-10 15:33:00,44.0,11.0,-100.00,SSE,164,16.0,25.0,26,0.00,,,-99.99,,2013-01-10 22:33:00,
2013-01-10 15:43:00,44.0,12.0,-100.00,SSE,168,14.0,21.0,27,0.00,,,-99.99,,2013-01-10 22:43:00,
2013-01-10 16:02:00,43.0,11.0,-100.00,SSE,155,16.0,27.0,26,0.00,,,-99.99,,2013-01-10 23:02:00,
2013-01-10 16:12:00,43.0,11.0,-100.00,SSE,165,10.0,17.0,27,0.00,,,-99.99,,2013-01-10 23:12:00,
2013-01-10 16:22:00,40.0,13.0,-100.00,East,92,6.0,9.0,33,0.00,,,-99.99,,2013-01-10 23:22:00,
2013-01-10 16:33:00,38.0,12.0,-100.00,ENE,66,7.0,12.0,34,0.00,,,-99.99,,2013-01-10 23:33:00,
2013-01-10 16:42:00,37.0,11.0,-100.00,East,88,7.0,11.0,34,0.00,,,-99.99,,2013-01-10 23:42:00,
2013-01-10 16:53:00,36.0,11.0,-100.00,East,92,7.0,11.0,35,0.00,,,-99.99,,2013-01-10 23:53:00,
2013-01-10 17:02:00,36.0,12.0,-100.00,East,95,7.0,13.0,37,0.00,,,-99.99,,2013-01-11 00:02:00,
2013-01-10 17:12:00,36.0,11.0,-100.00,East,100,11.0,17.0,35,0.00,,,-99.99,,2013-01-11 00:12:00,
2013-01-10 17:23:00,35.0,12.0,-100.00,East,100,12.0,18.0,37,0.00,,,-99.99,,2013-01-11 00:23:00,
2013-01-10 17:33:00,34.0,12.0,-100.00,ESE,103,12.0,17.0,40,0.00,,,-99.99,,2013-01-11 00:33:00,
2013-01-10 17:42:00,33.0,13.0,-100.00,ESE,103,12.0,17.0,42,0.00,,,-99.99,,2013-01-11 00:42:00,
2013-01-10 17:52:00,33.0,12.0,-100.00,ESE,106,12.0,16.0,41,0.00,,,-99.99,,2013-01-11 00:52:00,
2013-01-10 18:03:00,32.0,11.0,-100.00,East,99,9.0,15.0,42,0.00,,,-99.99,,2013-01-11 01:03:00,
2013-01-10 18:12:00,31.0,11.0,-100.00,East,95,6.0,12.0,43,0.00,,,-99.99,,2013-01-11 01:12:00,
2013-01-10 18:22:00,30.0,11.0,-100.00,East,93,6.0,9.0,44,0.00,,,-99.99,,2013-01-11 01:22:00,
2013-01-10 18:33:00,30.0,10.0,-100.00,East,90,9.0,12.0,43,0.00,,,-99.99,,2013-01-11 01:33:00,
2013-01-10 18:43:00,29.0,11.0,-100.00,East,89,10.0,12.0,45,0.00,,,-99.99,,2013-01-11 01:43:00,
2013-01-10 18:52:00,30.0,11.0,-100.00,East,85,12.0,14.0,44,0.00,,,-99.99,,2013-01-11 01:52:00,
2013-01-10 19:02:00,29.0,11.0,-100.00,East,88,9.0,13.0,46,0.00,,,-99.99,,2013-01-11 02:02:00,
2013-01-10 19:12:00,29.0,11.0,-100.00,East,88,9.0,13.0,46,0.00,,,-99.99,,2013-01-11 02:12:00,
2013-01-10 19:23:00,29.0,11.0,-100.00,East,85,11.0,13.0,46,0.00,,,-99.99,,2013-01-11 02:23:00,
2013-01-10 19:33:00,29.0,12.0,-100.00,East,85,12.0,14.0,49,0.00,,,-99.99,,2013-01-11 02:33:00,
2013-01-10 19:43:00,31.0,12.0,-100.00,East,93,8.0,13.0,44,0.00,,,-99.99,,2013-01-11 02:43:00,
2013-01-10 19:53:00,31.0,12.0,-100.00,East,97,9.0,17.0,45,0.00,,,-99.99,,2013-01-11 02:53:00,
2013-01-10 20:02:00,31.0,13.0,-100.00,ESE,112,9.0,16.0,47,0.00,,,-99.99,,2013-01-11 03:02:00,
2013-01-10 20:12:00,29.0,14.0,-100.00,ESE,109,6.0,10.0,53,0.00,,,-99.99,,2013-01-11 03:12:00,
2013-01-10 20:23:00,28.0,13.0,-100.00,East,96,6.0,11.0,55,0.00,,,-99.99,,2013-01-11 03:23:00,
2013-01-10 20:33:00,29.0,14.0,-100.00,SE,127,11.0,14.0,52,0.00,,,-99.99,,2013-01-11 03:33:00,
2013-01-10 20:42:00,31.0,14.0,-100.00,SE,128,14.0,21.0,50,0.00,,,-99.99,,2013-01-11 03:42:00,
2013-01-10 20:52:00,29.0,14.0,-100.00,ESE,120,15.0,21.0,54,0.00,,,-99.99,,2013-01-11 03:52:00,
2013-01-10 21:02:00,28.0,15.0,-100.00,ESE,113,14.0,21.0,56,0.00,,,-99.99,,2013-01-11 04:02:00,
2013-01-10 21:12:00,29.0,15.0,-100.00,ESE,103,11.0,17.0,55,0.00,,,-99.99,,2013-01-11 04:12:00,
2013-01-10 21:22:00,29.0,14.0,-100.00,ESE,110,7.0,11.0,54,0.00,,,-99.99,,2013-01-11 04:22:00,
2013-01-10 21:33:00,30.0,15.0,-100.00,ESE,123,6.0,15.0,52,0.00,,,-99.99,,2013-01-11 04:33:00,
2013-01-10 21:42:00,34.0,15.0,-100.00,SSE,157,13.0,20.0,45,0.00,,,-99.99,,2013-01-11 04:42:00,
2013-01-10 21:52:00,34.0,15.0,-100.00,SSE,161,19.0,26.0,44,0.00,,,-99.99,,2013-01-11 04:52:00,
2013-01-10 22:03:00,34.0,15.0,-100.00,South,169,19.0,24.0,45,0.00,,,-99.99,,2013-01-11 05:03:00,
2013-01-10 22:12:00,34.0,15.0,-100.00,South,171,18.0,29.0,45,0.00,,,-99.99,,2013-01-11 05:12:00,
2013-01-10 22:22:00,34.0,15.0,-100.00,SSE,167,19.0,23.0,46,0.00,,,-99.99,,2013-01-11 05:22:00,
2013-01-10 22:33:00,34.0,15.0,-100.00,South,169,20.0,26.0,46,0.00,,,-99.99,,2013-01-11 05:33:00,
2013-01-10 22:42:00,33.0,16.0,-100.00,SSE,164,20.0,26.0,49,0.00,,,-99.99,,2013-01-11 05:42:00,
2013-01-10 22:52:00,33.0,15.0,-100.00,SSE,168,20.0,24.0,49,0.00,,,-99.99,,2013-01-11 05:52:00,
2013-01-10 23:03:00,32.0,15.0,-100.00,SSE,168,19.0,24.0,51,0.00,,,-99.99,,2013-01-11 06:03:00,
2013-01-10 23:12:00,32.0,15.0,-100.00,SSE,168,18.0,24.0,50,0.00,,,-99.99,,2013-01-11 06:12:00,
2013-01-10 23:22:00,32.0,15.0,-100.00,SSE,165,16.0,19.0,50,0.00,,,-99.99,,2013-01-11 06:22:00,
2013-01-10 23:32:00,33.0,15.0,-100.00,SSE,160,17.0,24.0,47,0.00,,,-99.99,,2013-01-11 06:32:00,
2013-01-10 23:42:00,33.0,15.0,-100.00,SSE,157,20.0,26.0,46,0.00,,,-99.99,,2013-01-11 06:42:00,
2013-01-10 23:52:00,33.0,15.0,-100.00,SSE,157,22.0,28.0,46,0.00,,,-99.99,,2013-01-11 06:52:00,